Location: *
(50.3194°N, 7.1067°E)
Time: 11:34:31
(UTC+00:00)

Cosmos 1980 - Pass Details

Date: 22 September 2019
Orbit: 841 x 846 km, 71.0° (Epoch: 15 October)

Event Time Altitude Azimuth Distance (km) Brightness Sun altitude
Rises 18:51:27 0° 327° (NNW) 3,409 7.7 -13.5°
Reaches altitude 10° 18:53:58 10° 323° (NW) 2,469 7.0 -13.9°
Maximum altitude 18:59:26 52° 249° (WSW) 1,042 4.5 -14.8°
Drops below altitude 10° 19:04:52 10° 174° (S) 2,452 5.9 -15.6°
Enters shadow 19:07:08 - 170° (S) 3,307 6.5 -15.9°
